Preview of NWS' New Version of Forecast
This preview is not operational and should not be used for support decisions.

Regional Weather Roundup (RWR)

Issued by National Weather Service (NWS)

                            
000
ASUS44 KMEG 162110
RWRTN 
TENNESSEE HOURLY STATE WEATHER ROUNDUP
NATIONAL WEATHER SERVICE MEMPHIS TN
400 PM CDT SUN JUN 16 2019

TNZ002-004-019-021-049-052-054-088>092-162200-
WEST TENNESSEE
  
CITY           SKY/WX    TMP DP  RH WIND       PRES   REMARKS
MEMPHIS INTL   PTSUNNY   84  73  69 S17G26    29.88F HX  90           
NWS MEMPHIS      N/A     86 N/A N/A MISG        N/A                   
JACKSON        FAIR      85  73  67 S13G21    29.89F HX  91           
DYERSBURG      FAIR      88  73  61 S8G21     29.86F HX  95           
SOMERVILLE     SUNNY     84  72  65 S13       29.88F                  
COVINGTON      PTSUNNY   88  73  62 S14       29.84F HX  96           
UNION CITY     MOSUNNY   88  72  58 S16G23    29.83F HX  94           
BOLIVAR        SUNNY     82  70  65 S9G18     29.89F                  
PARIS          MOSUNNY   86  72  62 S16       29.87F HX  92           
HUNTINGDON     MOSUNNY   88  73  62 S13G18    29.87F HX  96           
LEXINGTON      MOSUNNY   86  72  62 S9G21     29.89F HX  92           
SELMER         SUNNY     79  66  65 VRB6      29.92F                  
SAVANNAH       SUNNY     77  70  78 S9        29.93S                  
$$

TNZ008-025-027-028-033-062-065-066-162200-
NORTH MIDDLE TENNESSEE
  
CITY           SKY/WX    TMP DP  RH WIND       PRES   REMARKS
NASHVILLE      FAIR      91  66  43 SW8G18    29.91F HX  93           
DICKSON        CLEAR     88  68  51 SW13G23   29.90F HX  91           
PORTLAND       MOSUNNY   90  70  51 SW10G16   29.89S HX  95           
CLARKSVILLE    FAIR      90  72  55 S14G20    29.87F HX  97           
LEBANON        CLEAR     91  68  46 SW12G20   29.89F HX  95           
SMYRNA         FAIR      89  69  51 SW12G17   29.92F HX  93           
MURFREESBORO   PTCLDY    90  68  48 SW12      29.90F HX  93           
COOKEVILLE     MOSUNNY   88  70  55 SW9       29.95S HX  92           
LIVINGSTON     PTCLDY    84  68  58 S7G16     29.95S                  
CROSSVILLE     CLOUDY    82  68  62 S7        30.01F                  
ROCKWOOD       CLEAR     79  73  83 VRB6      29.99F                  
$$

TNZ061-075-076-078-094-096-097-162200-
SOUTH MIDDLE TENNESSEE
  
CITY           SKY/WX    TMP DP  RH WIND       PRES   REMARKS
LAWRENCEBURG   PTCLDY    88  70  55 SW9       29.94F HX  92           
LEWISBURG      MOCLDY    88  70  55 S12G20    29.93F HX  92           
FAYETTEVILLE   MOSUNNY   88  68  51 SW13G21   29.96S HX  91           
TULLAHOMA      MOSUNNY   86  68  54 SW9G16    29.96S                  
WINCHESTER     MOSUNNY   88  68  51 W10G17    29.97S HX  91           
MCMINNVILLE    MOSUNNY   86  70  58 SW12      29.96S HX  90           
COLUMBIA       MOSUNNY   88  70  55 SW14      29.91F HX  92           
SHELBYVILLE    MOSUNNY   90  70  51 SW14G21   29.94S HX  95           
$$

TNZ017-018-042-046-047-162200-
NORTHEAST TENNESSEE
  
CITY           SKY/WX    TMP DP  RH WIND       PRES   REMARKS
TRI CITIES     FAIR      86  66  51 SW12      30.00F                  
ELIZABETHTON   PTSUNNY   84  66  54 VRB6G12   30.00F                  
GREENEVILLE    CLEAR     86  66  51 SW7G14    29.99F                  
$$

TNZ012-013-036-069-073-074-162200-
CENTRAL EAST TENNESSEE
  
CITY           SKY/WX    TMP DP  RH WIND       PRES   REMARKS
KNOXVILLE      FAIR      89  67  47 S16       29.94F HX  92           
OAK RIDGE      FAIR      84  68  58 VRB3      29.97F                  
DOWNTOWN KNOXV MOSUNNY   90  70  51 SW8       29.94F HX  95           
GATLINBURG     SUNNY     91  66  43 W10       29.94F HX  94           
MORRISTOWN     MOSUNNY   88  66  48 SW10      29.96F HX  90           
JACKSBORO      MOSUNNY   86  68  54 SW12      29.99S                  
$$

TNZ083-085-099-162200-
SOUTHEAST TENNESSEE
  
CITY           SKY/WX    TMP DP  RH WIND       PRES   REMARKS
CHATTANOOGA    PTSUNNY   87  68  52 SE8G17    29.97S THUNDER HX  90   
$$

SKY/WX REPORTED AS FAIR MEANS FEW OR NO CLOUDS BELOW
12 THOUSAND FEET.